Weather History for Vineland (AU8) ON, Ontario

Change the Weather History Date:

Thursday, September 12, 2013

  Actual Average Record
Temperature  
Mean Temperature 69 °F -  
Max Temperature 74 °F - - ()
Min Temperature 63 °F - - ()
Cooling Degree Days 4    
Growing Degree Days 19 (Base 50)    
Moisture  
Dew Point 63 °F    
Average Humidity 79    
Maximum Humidity 88    
Minimum Humidity 58    
Precipitation  
Precipitation 0.01 in - - ()
Sea Level Pressure  
Sea Level Pressure 29.79 in    
Wind  
Wind Speed 7 mph ()    
Max Wind Speed 12 mph    
Max Gust Speed 21 mph    
T = Trace of Precipitation, MM = Missing Value Source: Averaged Metar Reports

Daily Weather History Graph

Daily Weather History Graph

Search for Another Location

Airport:

Trip Planner

Search our weather history database for the weather conditions in past years. The results will help you decide how hot, cold, wet, or windy it might be!

Date:

Astronomy

Sep. 12, 2013 Rise Set
Actual Time 6:54 AM EDT 7:32 PM EDT
Civil Twilight 6:25 AM EDT 8:01 PM EDT
Nautical Twilight 5:51 AM EDT 8:35 PM EDT
Astronomical Twilight 5:16 AM EDT 9:10 PM EDT
Moon 2:30 PM EDT (9/12) No Moon Set
Length of Visible Light 13h 35m
Length of Day
12h 38m
Waxing Crescent, 50% of the Moon is Illuminated
Sep 12
Waxing Crescent
Sep 12
First Quarter
Sep 19
Full
Sep 26
Last Quarter
Oct 4
New

Hourly Weather History & Observations

Time (EDT) Temp. Dew Point Humidity Pressure Visibility Wind Dir Wind Speed Gust Speed Precip Events Conditions
12:00 AM 70.0 °F 65.1 °F 85% 29.90 in - WSW 9.2 mph - 0.09 in   Unknown
1:00 AM 69.3 °F 64.9 °F 86% 29.84 in - SW 6.9 mph - N/A   Unknown
2:00 AM 69 °F 66 °F 86% 29.83 in - SSW 8.1 mph - -  
2:00 AM 69.3 °F 65.7 °F 88% 29.83 in - SSW 8.1 mph - N/A   Unknown
3:00 AM 69.8 °F 66.2 °F 88% 29.82 in - SW 9.2 mph - N/A   Unknown
4:00 AM 69.6 °F 66.0 °F 88% 29.81 in - SW 4.6 mph - N/A   Unknown
5:00 AM 70.2 °F 66.0 °F 87% 29.81 in - WSW 10.4 mph - N/A   Unknown
6:00 AM 70.3 °F 66.4 °F 87% 29.82 in - WSW 10.4 mph - N/A   Unknown
7:00 AM 70.2 °F 66.2 °F 87% 29.81 in - West 6.9 mph - N/A   Unknown
8:00 AM 70 °F 66 °F 85% 29.82 in - West 6.9 mph - -  
8:00 AM 70.0 °F 66.4 °F 88% 29.82 in - West 6.9 mph - N/A   Unknown
9:00 AM 70.7 °F 66.6 °F 87% 29.81 in - WSW 5.8 mph - N/A   Unknown
10:00 AM 71.1 °F 66.7 °F 86% 29.80 in - West 6.9 mph - N/A   Unknown
11:00 AM 71.4 °F 66.4 °F 84% 29.79 in - WSW 8.1 mph - N/A   Unknown
12:00 PM 72.9 °F 66.2 °F 80% 29.77 in - WSW 5.8 mph - N/A   Unknown
1:00 PM 72.1 °F 65.7 °F 80% 29.78 in - NW 6.9 mph - N/A   Unknown
2:00 PM 74 °F 65 °F 66% 29.75 in - West 8.1 mph - -  
2:00 PM 74.1 °F 64.9 °F 73% 29.75 in - West 8.1 mph - N/A   Unknown
3:00 PM 70.5 °F 62.6 °F 76% 29.74 in - NW 11.5 mph 20.7 mph N/A   Unknown
4:00 PM 68.7 °F 62.2 °F 80% 29.74 in - NW 8.1 mph - 0.01 in   Unknown
5:00 PM 72.0 °F 61.3 °F 69% 29.73 in - WNW 6.9 mph - N/A   Unknown
6:00 PM 71.1 °F 55.6 °F 58% 29.73 in - NW 10.4 mph - N/A   Unknown
7:00 PM 69.4 °F 57.4 °F 65% 29.74 in - NW 8.1 mph - N/A   Unknown
8:00 PM 67.6 °F 55.6 °F 65% 29.75 in - NW 10.4 mph - N/A   Unknown
9:00 PM 66.4 °F 54.7 °F 66% 29.78 in - NW 10.4 mph - N/A   Unknown
10:00 PM 64.8 °F 54.1 °F 68% 29.79 in - NNW 9.2 mph - N/A   Unknown
11:00 PM 63.9 °F 55.0 °F 73% 29.78 in - NW 11.5 mph 18.4 mph N/A   Unknown